Lid_Strength_Index
-1 -1 -1 -1 -1 -1 -0 -0 -0 -0 0 0 0 0 0 0 2 4 9 6 5 2 4 6 5 4 3 4 4 5 8 9 8 8 7 5 6 5 5 5 4 3 3 3 2
-1 -1 -1 -1 -1 -1 -0 -0 -0 -0 0 -0 0 1 1 0 4 6 2 2 2 1 8 8 7 5 5 5 5 6 8 7 6 5 6 6 5 6 6 6 5 4 3 2 2
-1 -1 -1 -1 -1 -1 -1 -1 -1 -0 0 0 0 1 1 2 6 7 1 1 1 2 7 7 5 5 6 5 6 6 8 7 7 6 5 6 6 5 6 6 5 5 4 3 3
-0 -0 -1 -1 -1 -1 -1 -1 -1 -1 -0 -0 0 1 1 3 11 5 -0 0 0 5 7 7 7 7 8 8 6 8 7 7 7 7 7 6 5 6 5 5 4 4 3 3 3
0 0 -0 -0 -0 -1 -0 -1 -1 -1 -0 -0 0 0 3 7 7 3 0 1 4 6 7 6 7 7 8 7 8 8 7 8 7 7 7 6 7 6 6 5 5 5 3 3 3
1 1 0 0 0 -1 -1 -1 -1 -1 -1 -0 -0 0 4 9 4 2 2 4 4 4 5 6 7 6 8 8 8 7 7 8 7 8 8 7 7 7 6 5 5 6 4 3 3
1 1 1 1 0 0 -0 -1 -0 -0 -0 -0 -0 2 6 7 3 2 3 4 4 4 5 4 5 6 6 8 7 8 9 8 8 8 8 7 9 9 6 7 7 7 6 4 3
1 1 1 1 1 -0 -0 -1 -1 0 -0 -1 -1 3 8 4 2 4 3 4 4 4 4 4 4 5 6 7 8 9 9 11 9 8 8 8 10 6 6 7 7 6 6 6 4
2 2 1 1 1 1 -0 -0 -0 -0 -0 -1 2 4 9 4 5 4 3 5 4 4 4 4 4 7 8 10 11 10 12 11 11 8 8 9 10 7 7 7 7 6 6 6 6
2 2 2 1 1 1 -0 0 -0 0 0 1 3 7 7 8 5 4 4 4 5 5 5 6 6 8 9 10 13 12 12 11 11 9 9 9 9 8 7 7 7 6 6 6 6
1 2 1 2 1 1 1 3 5 6 5 8 7 7 7 4 4 5 5 6 5 7 9 7 9 11 10 9 9 9 10 11 10 9 9 10 10 8 7 7 7 7 6 6 5
1 1 1 2 1 1 2 7 7 6 10 6 6 6 5 4 7 6 4 8 8 10 8 10 11 8 8 9 10 10 11 11 11 10 10 10 10 8 7 7 7 7 6 6 5
1 1 1 1 0 2 4 6 4 4 9 8 6 7 6 4 7 7 5 7 9 10 10 11 10 9 9 10 11 11 12 12 12 10 10 11 11 10 8 8 7 7 7 6 6
1 1 2 1 3 3 5 3 1 2 11 11 9 7 5 5 8 4 5 6 8 10 9 10 10 10 10 11 10 13 10 11 12 12 14 11 15 11 9 10 9 8 8 7 6
0 1 1 2 4 5 4 3 0 4 17 10 10 5 5 7 7 7 5 7 9 9 9 11 11 10 11 11 10 11 10 11 12 12 13 13 15 12 11 11 9 8 8 7 6
0 1 1 2 3 3 2 1 2 11 17 12 10 10 9 8 8 7 7 6 7 9 9 9 9 9 9 10 10 10 11 11 11 12 16 13 13 14 12 10 10 9 8 7 7
1 1 1 2 5 2 1 3 13 16 11 13 13 11 11 11 10 8 9 10 11 13 13 11 11 10 9 11 9 10 11 15 16 16 17 14 14 13 10 11 9 9 7 7 7
2 1 2 2 2 2 4 9 17 14 13 10 11 11 12 11 11 10 10 11 9 10 11 14 15 11 10 10 11 11 11 14 18 17 16 15 16 13 10 10 10 8 7 7 7
3 2 3 3 2 3 7 15 15 13 11 12 12 13 13 12 11 11 11 11 10 9 12 13 13 9 9 9 9 11 13 10 14 16 15 14 12 10 10 10 10 8 8 7 6
5 5 4 2 3 5 10 14 12 10 10 10 14 12 15 13 13 13 12 10 10 9 8 10 13 10 10 9 9 10 9 13 12 18 17 15 13 13 11 10 9 8 8 7 7
7 8 6 2 4 9 14 13 11 9 9 11 12 13 12 13 13 13 13 11 9 9 8 9 11 13 10 11 12 12 12 11 11 12 15 16 14 10 9 9 9 8 7 7 8
9 14 7 4 11 11 13 11 9 10 8 10 9 10 12 12 13 12 13 11 9 9 12 10 10 14 13 10 8 9 11 11 13 15 13 13 14 10 10 8 7 7 7 7 6
12 13 8 8 14 14 10 10 9 10 10 10 10 9 10 11 13 11 11 9 9 10 11 11 13 16 15 12 11 12 10 10 10 10 13 14 15 9 9 8 7 8 8 8 8
9 12 13 12 12 11 12 12 12 8 9 8 9 8 10 11 10 12 11 10 9 9 9 10 11 14 16 14 12 14 13 11 11 13 14 13 13 11 10 9 8 7 7 8 8
10 12 13 14 14 11 10 11 12 12 9 8 10 9 10 12 12 12 10 10 9 9 9 10 14 13 13 11 11 12 12 12 13 13 14 13 13 11 9 8 7 7 7 8 8
10 11 12 12 12 12 11 12 12 11 10 11 11 9 9 11 11 12 10 10 11 9 10 10 14 12 15 11 12 13 11 12 12 12 12 12 12 9 7 7 8 8 8 8 8
8 8 9 11 12 13 13 12 11 10 9 9 9 10 10 9 7 8 7 7 8 10 11 11 13 15 15 12 13 15 14 12 11 11 11 13 11 9 9 8 7 8 8 8 8